Find Starlink 1531

NORAD ID: 46572 Int'l Des: 2020-070 Owner: SPXS Country: US Constellation: starlink operational
LEOCIRCULAR

リアルタイム位置

3D地球を読み込み中...

Starlink 1531について

説明を読み込み中...

次回通過

Passes for default location (London). Set your location on the main map for personalized predictions.

高度履歴

Loading altitude history...

軌道要素

1 46572U 20070AS 26104.88298809 .00073052 00000-0 55905-3 0 9992
2 46572 53.0519 321.2895 0004459 1.8806 358.2227 15.71494497305709
Epoch: Apr 14, 2026 • Age: 3 hours

現在のステータス

高度 372.3 km
速度 7.69 km/s
衛星直下点 -52.27°S, 43.92°E
打ち上げ日 Oct 6, 2020
運用期間 5.5 years
タイプ internet

技術仕様

分類 Payload
質量 260.00 kg
乾燥質量 248.00 kg
総質量 260.00 kg
長さ 0.20 m
直径 2.80 m
スパン 9.00 m
形状 Box + pan
製造者 SPXS
バスタイプ Starlink
フェーズステータス In Orbit
所有者/国 SPXS/US

Most Searched